Location: A�t Bou Chrif
(32.7193°N, 5.2385°W)
Time: 03:36:30
(UTC+00:00)

USA 267 - Pass Details

Date: 08 August 2020
Orbit: 1102 x 1106 km, 123.0° (Epoch: 18 September)

Event Time Altitude Azimuth Distance (km) Brightness Sun altitude
Rises 19:44:24 0° 44° (NE) 3,923 6.0 -7.0°
Reaches altitude 10° 19:46:54 10° 46° (NE) 2,963 5.3 -7.5°
Maximum altitude 19:53:26 74° 131° (SE) 1,144 3.2 -8.8°
Drops below altitude 10° 19:59:57 10° 216° (SW) 2,954 5.6 -10.0°
Sets 20:02:26 0° 218° (SW) 3,910 6.3 -10.5°
